Temp
16 16 16 15 15 15 16 16 16 17 16 15 14 14 13 13 12 12 11 12 11 11 12 11 11 11 10 10 10 9 9 9 9 9 9 9 9 9 9 9 9 9 9
16 16 15 15 14 15 16 15 15 16 15 14 12 13 12 12 12 11 11 10 10 10 11 11 11 11 10 10 9 9 9 9 8 8 8 8 8 8 8 9 9 9 9
16 15 15 15 14 14 15 14 15 15 15 12 12 12 11 11 11 11 10 9 8 9 9 9 10 10 10 9 9 9 8 8 8 8 8 8 8 8 8 8 8 8 9
14 15 15 14 14 14 14 14 14 14 14 13 11 10 10 10 10 9 9 9 8 8 9 9 8 9 9 9 9 8 8 8 8 8 8 7 7 8 7 7 8 8 8
15 14 15 14 14 14 14 13 13 13 13 12 11 10 10 10 9 9 8 8 8 8 7 8 8 8 8 8 8 8 8 8 7 7 7 7 7 7 7 7 7 7 7
14 14 14 14 13 13 13 12 12 12 11 10 10 10 10 9 8 8 7 7 7 7 6 6 7 6 7 7 7 8 7 7 7 7 7 7 6 6 6 6 7 7 7
14 14 14 13 13 13 13 12 12 11 10 10 9 9 8 8 9 8 7 7 7 7 6 6 6 6 6 6 6 6 7 6 6 6 5 6 6 6 5 5 6 6 6
13 14 14 13 12 12 12 12 11 10 9 9 8 8 5 7 8 8 8 7 6 6 5 5 5 5 5 5 4 5 6 6 6 6 5 5 5 5 5 5 5 5 5
13 13 13 12 12 11 12 12 11 10 8 8 8 8 4 4 6 7 7 7 7 6 5 4 4 4 4 3 2 3 4 5 5 5 5 4 4 4 4 4 5 4 5
11 12 12 12 11 12 11 12 11 10 8 8 8 10 10 8 3 5 7 6 6 6 5 5 4 3 2 2 1 2 3 3 4 4 4 4 3 3 4 4 3 3 4
10 10 11 11 11 12 12 11 10 10 8 8 8 10 8 8 8 5 5 5 5 6 5 4 3 3 2 2 1 1 1 2 2 3 3 3 2 2 3 3 3 3 3
9 9 10 10 11 11 11 11 10 10 8 8 8 10 8 8 6 6 4 5 5 4 4 4 3 2 2 1 -0 -0 -0 0 1 1 1 2 2 1 1 2 2 2 1
9 9 9 10 10 11 11 11 10 9 9 9 8 10 10 9 8 8 6 5 5 4 4 4 3 2 1 1 -1 -1 -1 -1 -0 -0 -0 0 0 0 -0 0 1 1 0
10 9 10 10 10 11 11 10 10 9 9 9 9 10 10 10 10 8 6 5 3 4 4 3 2 2 2 1 -1 -2 -2 -2 -2 -1 -1 -1 -1 -1 -1 -1 -1 -1 -1
10 9 9 9 9 10 11 10 9 9 8 9 9 11 11 11 10 10 6 6 5 3 3 2 1 2 2 0 -1 -1 -2 -3 -3 -3 -3 -3 -3 -3 -2 -2 -2 -2 -2
10 9 9 9 9 9 9 9 9 9 9 9 9 11 11 12 10 9 6 6 6 4 2 3 1 1 1 -1 -1 -1 -2 -3 -4 -4 -4 -4 -4 -4 -4 -3 -3 -3 -3
10 9 8 9 8 8 8 9 8 8 9 9 10 11 11 11 10 7 6 6 5 5 3 2 3 2 1 -1 -1 -2 -2 -3 -4 -4 -5 -5 -5 -5 -5 -5 -4 -4 -5
9 8 8 8 7 8 8 8 8 8 8 8 9 10 11 10 9 7 6 6 7 6 3 1 1 0 1 -0 -1 -1 -3 -3 -3 -5 -5 -5 -6 -6 -6 -6 -5 -5 -5
8 7 7 6 6 7 7 8 7 7 7 8 8 9 10 10 9 8 7 7 7 5 3 1 0 0 0 -0 -1 -2 -3 -3 -4 -4 -4 -5 -6 -6 -6 -6 -6 -6 -6
6 6 6 6 6 6 6 6 6 6 7 7 7 8 8 9 9 8 8 7 5 3 2 1 -0 -0 0 -0 -1 -2 -4 -4 -4 -4 -4 -5 -5 -6 -6 -6 -5 -6 -7
5 6 5 5 6 5 5 5 5 6 6 5 6 6 7 8 8 7 7 5 4 1 1 0 -0 -0 -0 -0 -1 -3 -3 -4 -4 -4 -4 -5 -5 -5 -6 -6 -5 -5 -6
4 4 4 3 3 3 4 5 5 5 5 5 5 5 5 5 6 6 7 7 7 3 0 -0 -0 -1 -0 -0 -0 -1 -3 -3 -3 -4 -4 -4 -5 -5 -5 -6 -5 -5 -6
2 2 2 2 2 1 3 3 3 3 3 3 3 3 3 4 5 5 5 5 5 5 4 1 -1 -1 -1 -0 -0 -1 -1 -2 -3 -3 -3 -4 -5 -5 -5 -5 -5 -6 -6
0 0 -0 -0 -0 0 2 2 3 2 2 1 1 2 3 3 4 4 4 2 2 2 2 2 1 0 0 -0 -0 -1 -1 -2 -3 -4 -4 -4 -4 -5 -5 -5 -5 -6 -6
-1 -1 -1 -1 -0 -0 0 1 1 0 -0 -0 0 2 2 2 2 3 3 1 0 -0 0 0 0 -1 -1 -1 -2 -2 -3 -3 -5 -5 -4 -4 -5 -5 -5 -5 -5 -6 -6
-1 -1 -1 -1 -0 -1 -0 -0 -1 -1 -1 -1 -1 -1 1 1 2 3 3 1 -1 -4 -2 -2 -3 -3 -2 -3 -2 -2 -2 -3 -4 -6 -5 -5 -5 -5 -5 -6 -5 -5 -6
Height
788 792 799 804 809 812 815 823 820 822 824 824 828 830 832 834 839 844 848 848 853 858 859 861 862 863 863 863 863 863 862 862 862 863 861 860 860 859 859 858 857 856 854
784 787 793 801 807 810 812 817 820 822 823 824 828 833 836 835 839 843 846 851 854 857 859 860 864 865 865 865 864 864 864 864 864 864 864 862 862 861 861 860 859 858 857
781 786 787 795 803 810 812 816 818 821 824 826 830 834 838 841 840 843 846 852 855 856 859 859 864 867 867 867 867 867 866 867 867 866 866 865 864 863 862 861 861 860 859
779 782 784 791 799 805 811 813 816 819 823 825 829 836 840 843 843 845 849 852 856 856 858 860 864 868 869 869 870 869 868 869 869 868 867 867 866 864 863 863 863 862 861
774 780 783 787 794 799 807 811 812 817 820 825 829 837 840 843 846 847 850 855 855 859 860 862 865 867 869 870 871 870 870 870 870 869 869 868 867 866 865 865 865 864 863
770 775 779 784 790 796 803 808 810 814 819 823 829 836 841 844 848 850 852 854 860 858 860 863 866 868 869 871 872 872 872 872 871 871 871 871 870 869 869 868 867 866 866
763 770 775 781 786 791 796 801 804 809 818 823 826 835 843 846 850 852 854 855 858 860 859 862 867 868 869 871 874 875 874 873 873 873 873 872 872 872 871 871 870 869 867
757 763 769 775 782 788 790 796 799 806 814 818 823 830 844 850 851 851 854 857 858 858 859 863 868 869 871 871 874 877 876 875 875 875 875 875 874 874 874 873 873 871 869
752 758 763 769 776 783 784 788 791 795 804 815 815 817 836 842 846 851 852 854 856 856 859 863 866 869 872 874 875 875 875 877 877 877 877 877 877 875 875 875 875 873 872
747 752 759 763 770 776 780 780 785 788 793 804 814 812 812 814 832 847 851 853 853 855 858 862 863 868 873 875 876 875 875 876 877 878 877 879 878 878 877 877 876 875 874
743 747 751 760 764 769 774 778 779 784 786 794 803 807 809 812 816 826 841 847 853 854 858 863 866 869 871 872 873 874 875 876 877 878 878 879 880 880 880 880 879 879 877
736 741 747 753 757 764 767 771 775 778 781 787 795 803 802 803 807 813 828 839 846 852 857 862 866 870 873 871 872 874 875 876 877 879 880 880 880 880 880 880 880 880 878
729 734 739 744 752 758 762 767 771 772 777 780 787 795 799 800 803 805 816 834 844 850 856 861 863 868 873 872 872 870 875 876 877 879 881 881 882 883 881 881 882 883 881
721 726 729 735 740 746 754 762 767 769 772 775 783 790 795 796 801 802 809 822 844 851 856 857 862 865 869 872 873 872 873 876 879 880 881 882 883 883 882 881 883 882 881
715 718 722 727 731 740 743 751 760 765 769 772 779 785 790 793 796 799 805 814 819 842 853 856 859 863 865 870 873 872 872 877 879 882 881 882 883 884 883 883 884 882 881
705 709 714 719 724 733 739 743 752 759 765 770 775 779 783 789 791 793 800 810 816 818 838 849 851 859 861 868 874 874 875 877 880 882 882 884 884 884 884 885 885 884 881
701 701 706 710 716 726 731 739 744 752 759 767 771 773 777 784 788 794 800 805 814 819 828 844 849 858 860 864 873 875 876 878 880 881 884 885 885 885 885 886 886 885 884
696 696 699 705 711 715 727 730 737 744 753 761 773 773 774 780 785 788 797 803 806 815 824 836 847 854 857 862 870 872 876 880 880 882 884 885 885 887 886 886 887 885 887
690 692 694 699 704 710 718 725 733 741 748 762 770 773 779 778 785 788 794 797 803 808 820 832 842 851 855 861 867 871 875 878 880 882 883 885 886 888 886 886 887 883 884
684 685 687 693 701 708 714 723 729 739 746 756 762 774 781 777 787 788 792 795 802 809 821 830 842 849 853 858 863 867 873 877 881 882 883 885 888 888 888 886 885 883 882
678 681 681 689 695 704 713 719 728 734 742 755 761 772 780 782 787 790 788 794 799 806 819 829 840 847 850 854 859 865 868 874 878 878 881 884 885 888 888 887 885 883 882
673 678 682 686 693 701 709 716 724 731 741 752 763 772 774 782 783 790 792 795 796 800 815 824 835 840 845 850 856 860 864 872 877 878 878 884 884 886 887 887 884 883 882
672 676 682 687 693 700 708 718 725 733 741 752 759 766 772 778 782 791 791 796 799 807 813 818 826 834 841 846 852 858 862 867 871 872 876 881 881 882 885 887 884 883 882
673 677 683 689 695 702 710 719 727 735 744 751 758 759 772 774 781 786 789 792 802 814 818 822 828 834 840 847 852 854 861 867 871 871 876 878 878 880 881 884 882 881 881
677 681 686 692 698 708 712 723 729 735 744 749 759 764 771 777 780 783 786 791 804 814 821 825 832 838 843 849 852 854 858 863 868 870 874 876 875 877 879 880 879 879 880
681 686 692 698 703 711 718 725 730 737 741 749 761 769 773 776 780 782 786 791 802 813 817 824 831 838 844 848 851 853 855 858 864 869 870 872 873 876 877 877 877 878 878
Wind_Speed
32 30 27 25 23 23 25 25 20 23 21 27 24 28 30 31 31 30 27 26 22 17 16 15 16 16 17 18 18 17 17 17 17 17 18 19 19 19 18 18 17 17 16
34 33 30 27 27 26 29 24 25 26 21 26 25 25 29 31 30 28 28 23 23 22 19 17 15 15 15 15 16 16 16 17 17 17 17 18 18 18 18 18 18 18 18
34 34 35 31 30 29 28 25 26 26 24 29 28 25 24 25 26 26 24 20 22 22 22 22 17 15 15 16 16 16 17 16 16 17 17 17 18 19 19 19 19 18 18
34 37 37 38 35 32 30 29 29 28 27 30 31 26 24 20 20 18 17 20 20 21 21 20 20 17 16 15 15 15 16 16 16 17 17 18 18 18 18 17 18 19 20
39 39 40 41 38 34 33 32 32 33 34 34 34 29 24 21 19 19 20 17 16 17 22 21 20 20 16 15 15 15 15 16 17 17 17 18 18 18 19 19 19 18 18
42 42 40 39 37 35 33 31 34 33 33 33 31 26 24 22 22 20 20 17 15 16 16 15 19 21 19 17 16 15 15 16 17 17 16 17 18 18 19 19 19 19 18
42 43 40 36 37 38 40 35 38 38 32 35 30 27 20 16 16 18 18 18 16 16 16 13 13 15 20 20 15 15 15 17 17 16 16 16 17 17 18 18 18 19 20
44 44 41 40 38 36 40 38 39 32 32 39 22 21 4 8 15 15 17 18 19 18 17 16 13 14 15 20 15 12 12 13 14 15 15 16 16 16 16 17 18 18 19
46 45 42 42 41 38 40 45 45 40 34 31 44 12 4 4 13 17 20 22 20 21 22 18 12 12 14 13 15 13 15 15 15 15 15 15 15 15 15 16 16 16 17
42 45 44 43 43 42 37 45 45 41 42 34 39 14 12 21 4 5 21 23 20 19 17 17 16 15 12 10 14 16 19 17 16 15 15 15 15 15 15 16 16 16 16
38 43 41 41 45 42 39 40 42 41 44 39 37 24 18 27 16 8 9 17 22 18 18 22 18 18 15 14 18 16 18 18 16 15 14 14 14 15 15 15 16 16 17
35 37 36 41 46 40 41 46 44 43 42 37 34 24 26 17 17 13 5 19 19 24 25 21 21 19 15 15 17 16 16 17 16 15 15 14 14 14 14 14 14 14 16
34 38 42 39 41 40 37 41 42 42 42 40 39 32 30 27 28 20 28 21 14 22 19 25 24 22 19 12 16 19 16 16 16 15 14 14 13 13 14 15 14 14 16
37 40 48 45 44 48 42 41 41 40 43 42 39 37 32 28 30 30 29 34 8 11 25 20 28 25 17 13 16 17 17 17 15 15 14 14 13 13 13 14 13 14 15
33 37 42 43 43 44 45 44 39 38 38 40 41 37 35 30 33 33 40 42 31 8 7 19 17 26 21 15 16 16 17 16 15 14 14 13 12 12 13 13 12 13 13
35 35 41 41 40 43 41 42 37 38 36 37 38 40 39 35 33 39 41 37 27 21 5 28 20 31 24 20 16 14 15 16 14 14 13 12 12 12 12 12 12 13 14
35 37 38 41 41 39 40 38 33 33 32 33 36 40 39 32 36 39 38 35 30 28 17 21 30 30 28 27 21 16 14 14 15 13 11 11 11 12 12 12 12 12 12
33 38 39 36 34 38 38 37 35 34 34 33 31 35 38 32 37 40 38 34 35 29 34 27 30 33 31 27 24 18 18 14 12 13 12 11 11 11 11 12 11 12 11
35 33 35 32 34 38 39 40 37 36 38 36 32 30 32 33 31 38 40 39 35 33 36 35 26 33 33 29 25 20 18 15 12 11 12 10 10 10 11 11 10 11 10
32 37 39 37 36 35 36 37 37 38 37 37 30 30 30 32 30 27 35 34 38 37 33 31 28 30 33 30 25 29 24 19 16 13 9 8 8 8 8 9 10 10 10
34 37 38 40 42 42 40 41 40 37 35 34 30 29 27 26 28 27 35 39 41 36 32 30 25 28 27 33 31 28 28 21 14 13 12 10 9 9 6 3 5 10 11
34 38 38 41 39 34 40 39 40 39 37 35 33 31 28 31 31 31 36 36 39 44 33 30 25 29 31 33 29 31 30 23 9 15 14 13 9 10 7 3 2 6 10
30 31 33 35 33 36 42 42 42 41 42 42 39 37 31 30 31 34 35 35 32 34 38 37 34 31 34 36 32 30 28 21 9 14 16 17 12 11 9 6 3 1 6
32 33 30 31 35 35 44 43 42 40 38 36 37 37 36 34 37 38 37 34 29 25 26 28 32 33 33 33 29 28 24 17 12 15 12 7 14 13 11 8 5 2 2
27 28 33 34 36 37 40 40 40 39 38 37 33 33 36 37 37 38 38 37 31 24 19 19 22 23 24 24 23 24 22 25 9 11 11 7 11 10 9 8 6 5 3
26 30 29 31 35 34 38 37 38 35 34 32 30 30 34 35 37 37 38 39 38 32 33 30 28 27 26 25 22 24 27 23 11 7 13 10 11 8 4 2 4 2 5
Wind_Direction
182 176 181 184 181 170 165 162 157 156 139 146 150 151 148 143 139 130 124 123 115 101 98 97 96 96 94 91 85 82 78 73 70 67 67 66 63 59 55 52 49 45 42
186 180 182 182 180 175 168 164 162 163 143 144 144 149 149 146 142 138 131 123 119 112 102 104 103 101 95 92 87 81 77 74 71 69 67 64 61 57 54 50 47 44 41
190 185 178 175 181 179 172 169 160 160 147 136 139 147 148 144 144 144 144 141 129 125 110 99 98 103 101 95 90 85 80 77 74 72 68 65 61 57 53 49 46 44 43
186 180 177 174 174 179 177 169 162 152 146 137 141 144 143 145 149 148 152 152 144 131 131 122 99 93 97 95 91 86 84 81 78 76 72 66 62 57 55 51 48 47 45
189 188 183 180 182 181 179 170 165 162 150 138 135 137 138 135 133 137 140 144 141 149 136 133 131 107 94 95 94 91 87 85 80 75 72 68 63 61 59 55 51 46 43
192 190 188 185 184 180 177 170 162 158 153 142 132 132 136 136 137 148 151 137 135 131 134 139 137 118 105 94 94 93 90 87 82 78 75 71 67 65 61 57 53 50 45
194 198 198 193 190 184 178 174 164 157 148 153 127 119 115 128 150 142 138 147 143 137 130 134 149 141 132 110 92 96 95 90 86 81 78 75 69 68 61 58 57 53 48
196 197 198 193 189 182 176 178 165 155 155 157 150 123 122 131 156 161 157 146 152 160 149 138 139 162 146 134 101 97 97 94 90 85 78 73 69 67 60 59 56 52 49
201 198 198 188 187 189 186 180 171 166 162 170 161 145 141 181 150 173 164 164 161 142 142 139 143 147 155 153 119 108 106 99 92 86 80 75 69 67 64 64 58 52 52
206 201 200 199 193 193 188 183 177 173 168 172 181 181 183 145 161 153 168 167 169 167 168 150 151 153 149 138 123 115 116 109 100 91 86 76 68 66 68 63 58 52 52
209 203 196 197 195 193 193 185 180 180 178 178 188 201 166 160 144 141 159 166 166 171 170 156 164 162 158 149 137 122 123 112 102 97 92 84 76 69 67 62 56 52 50
204 202 196 198 198 198 195 191 187 185 182 184 190 202 171 167 162 150 136 163 159 167 166 161 170 167 158 149 134 123 117 116 104 99 97 94 88 78 75 70 64 57 56
201 202 199 197 200 199 200 192 191 188 187 187 193 193 189 183 169 152 146 152 153 152 162 165 169 168 158 158 142 133 123 118 110 107 101 94 87 82 72 71 65 57 52
205 203 202 201 202 201 201 196 195 193 192 191 194 196 194 189 177 163 152 147 130 146 155 157 166 169 169 164 144 138 129 122 115 110 106 98 92 88 84 75 71 65 61
208 202 200 199 199 200 199 194 196 195 192 191 198 198 196 187 184 177 159 160 154 154 173 166 151 173 165 166 152 143 136 130 123 117 108 102 98 91 87 86 79 74 68
209 201 196 196 198 197 198 192 194 193 192 195 198 197 195 198 185 174 161 165 167 145 147 170 153 166 161 163 156 146 138 134 131 125 114 107 100 94 89 86 80 79 73
221 203 193 192 194 195 196 190 192 194 194 195 194 192 188 177 171 165 164 166 163 157 143 157 165 168 160 154 163 164 151 143 136 129 123 112 101 99 94 91 88 81 74
230 206 194 189 189 189 193 191 190 189 187 191 191 184 174 162 165 164 166 166 169 171 152 146 158 165 167 172 172 165 153 146 137 140 133 119 106 99 100 94 89 82 71
221 200 188 184 181 185 188 192 188 187 181 183 179 168 169 166 155 172 175 171 173 164 156 154 153 163 166 166 166 168 161 153 149 146 127 123 122 110 98 92 90 86 78
201 190 185 182 182 179 177 179 177 174 168 168 167 165 172 176 174 167 174 168 161 151 150 147 150 157 164 169 167 171 164 164 160 156 143 141 140 133 114 73 56 61 60
197 191 176 176 174 175 170 168 165 165 163 161 165 170 172 175 183 182 168 162 161 146 147 147 155 159 164 168 166 162 165 167 167 178 172 179 176 179 183 29 49 49 42
185 180 171 164 158 157 169 167 166 157 160 163 162 166 168 180 173 179 175 170 172 158 152 156 163 165 168 170 175 169 158 159 153 182 184 190 200 218 230 257 41 49 48
165 160 156 155 151 157 172 173 172 166 164 165 161 159 155 161 166 167 162 165 168 175 181 170 165 173 173 180 179 177 179 182 174 173 185 192 212 218 225 244 269 52 51
150 146 143 144 144 151 163 165 165 161 161 161 162 157 160 152 159 158 154 149 149 164 176 181 183 180 184 182 189 183 181 180 168 159 177 203 204 213 225 232 234 248 1
138 138 140 139 139 148 159 163 165 162 161 158 164 163 163 160 158 160 153 140 143 146 163 170 172 175 175 176 173 171 173 162 145 172 185 169 164 181 214 238 229 232 266
135 140 141 147 153 153 168 169 162 154 149 152 166 171 169 162 163 165 159 153 142 143 151 152 155 159 165 168 174 182 174 175 151 172 190 162 159 185 189 196 185 257 269